Вернуться в каталог

COSMOS 2234

GLONASS

АктивенНавигацияMEO
NORAD 22512·PAYLOAD·🇷🇺 Russia

Запущен Feb 17, 1993 с Baikonur Cosmodrome

Loading…

Ближайшие Пролёты (ближайшие 24 часа)

TLE

СвежийSource: Space-Track

Эпоха: Sep 14, 2026, 13:31 UTC

1 22512U 93010A   26257.56362380 -.00000014  00000-0  00000+0 0  9995
2 22512  64.9610  67.0166 0022875 213.7850 141.8424  2.13103582261037

Отслеживайте COSMOS 2234 в реальном времени с AllMySat

Download on the App Store